CW2927 Weather Reports


time (UTC)temp
F
wind
direction
speed
knots
gust
knots
rain 1hr
in
rain 24hr
in
rain mn
in
humidity
%
barometer
mb
20260903134204 66 210 0.9 6.1 0.00 0.20 0.08 93 1010.2
20260903132704 66 175 1.7 6.1 0.00 0.20 0.08 93 1010.1
20260903132204 65 147 1.7 5.2 0.00 0.20 0.08 93 1010.1
20260903124204 64 167 1.7 6.1 0.00 0.20 0.08 95 1010.3
20260903122704 64 160 2.6 6.1 0.00 0.20 0.08 95 1010.3
20260903122204 64 296 0.9 4.3 0.00 0.20 0.08 95 1010.3
20260903120704 64 185 1.7 2.6 0.00 0.20 0.08 95 1010.3
20260903120204 64 171 0.9 7.0 0.00 0.20 0.08 95 1010.2
20260903114703 63 183 2.6 5.2 0.00 0.20 0.08 95 1010.3
20260903114204 63 177 1.7 6.1 0.00 0.20 0.08 95 1010.2
20260903112704 63 184 2.6 5.2 0.00 0.20 0.08 95 1010.2
20260903112204 63 173 2.6 7.0 0.00 0.20 0.08 95 1010.2
20260903110704 63 152 3.5 6.1 0.01 0.20 0.08 95 1010.1
20260903110204 62 154 2.6 6.1 0.01 0.20 0.08 95 1010.1
20260903104704 62 166 2.6 6.1 0.01 0.20 0.08 95 1009.9
20260903104204 62 160 1.7 6.1 0.01 0.20 0.08 95 1010.0
20260903102704 62 169 2.6 7.0 0.01 0.20 0.08 95 1009.9
20260903102204 62 166 2.6 6.1 0.01 0.20 0.08 95 1009.9
20260903100704 62 149 1.7 4.3 0.00 0.20 0.07 95 1009.8
20260903100203 62 172 2.6 4.3 0.00 0.20 0.07 95 1009.7
20260903094703 62 154 1.7 4.3 0.00 0.20 0.07 95 1009.6
20260903094204 62 148 1.7 4.3 0.00 0.20 0.07 95 1009.6
20260903092703 62 167 1.7 7.0 0.00 0.20 0.07 95 1009.4
20260903090704 61 132 1.7 4.3 0.02 0.20 0.07 95 1009.6
20260903090204 61 132 2.6 5.2 0.02 0.20 0.07 95 1009.6
20260903084704 62 155 1.7 2.6 0.02 0.20 0.07 95 1009.8
20260903082704 61 104 1.7 4.3 0.02 0.20 0.07 95 1009.9
20260903082204 61 163 1.7 5.2 0.02 0.19 0.06 94 1009.9
20260903080704 61 122 1.7 4.3 0.00 0.17 0.05 94 1009.7
20260903080204 61 159 1.7 5.2 0.00 0.17 0.05 94 1009.8
20260903074205 61 167 1.7 7.0 0.00 0.17 0.05 94 1009.8
20260903072205 61 165 4.3 7.8 0.00 0.17 0.05 94 1009.9
20260903070705 61 113 1.7 6.1 0.00 0.17 0.05 94 1009.9
20260903070205 61 146 2.6 6.1 0.00 0.17 0.05 94 1009.9
20260903064705 61 101 2.6 6.1 0.00 0.17 0.05 94 1010.0
20260903064205 61 169 3.5 7.8 0.00 0.17 0.05 94 1009.9
20260903062705 61 126 4.3 7.0 0.00 0.17 0.05 94 1009.7
20260903062205 61 142 2.6 8.7 0.00 0.17 0.05 94 1009.7
20260903060706 61 154 3.5 8.7 0.01 0.17 0.05 94 1009.7
20260903054705 61 122 4.3 7.8 0.03 0.17 0.05 93 1010.1
20260903054205 61 115 4.3 8.7 0.03 0.17 0.05 93 1010.2
20260903052705 61 122 3.5 7.8 0.04 0.17 0.05 93 1010.3
20260903052205 61 103 4.3 10.4 0.04 0.17 0.05 94 1010.4
20260903050705 61 108 4.3 11.3 0.03 0.17 0.04 93 1010.7
20260903050205 61 108 4.3 10.4 0.03 0.16 0.03 93 1010.9
20260903044705 62 113 2.6 7.0 0.02 0.14 0.02 93 1011.3
20260903044205 62 133 4.3 8.7 0.02 0.14 0.02 93 1011.3
20260903042705 62 122 4.3 8.7 0.02 0.13 0.01 93 1011.4
20260903042205 62 168 2.6 7.0 0.03 0.13 0.01 93 1011.5
20260903040705 62 161 4.3 7.0 0.05 0.13 0.01 93 1011.6
20260903034705 62 112 4.3 7.8 0.06 0.13 0.13 93 1011.6
20260903034205 62 117 2.6 12.2 0.07 0.13 0.13 93 1011.6
20260903032705 62 111 4.3 10.4 0.06 0.11 0.11 93 1011.9
20260903032205 62 156 4.3 11.3 0.06 0.10 0.10 93 1012.0
20260903030705 63 173 5.2 10.4 0.05 0.09 0.09 92 1012.3
20260903030204 63 103 2.6 11.3 0.05 0.08 0.08 92 1012.3
20260903024705 63 137 3.5 7.8 0.05 0.06 0.06 92 1012.4
20260903024205 63 135 4.3 10.4 0.04 0.06 0.06 91 1012.4
20260903022705 63 133 3.5 10.4 0.04 0.05 0.05 91 1012.4
20260903022205 63 136 3.5 11.3 0.04 0.05 0.05 90 1012.6
20260903020705 64 138 4.3 10.4 0.03 0.04 0.04 89 1012.8
20260903014705 65 130 5.2 8.7 0.01 0.02 0.02 86 1012.8
20260903012205 66 114 3.5 7.8 0.01 0.01 0.01 84 1012.9
20260903010705 66 147 3.5 7.0 0.01 0.01 0.01 84 1013.0
20260903010205 66 147 2.6 7.8 0.01 0.01 0.01 84 1012.9
20260903004704 66 139 2.6 8.7 0.01 0.01 0.01 83 1012.9
20260903004207 67 155 2.6 10.4 0.01 0.01 0.01 82 1012.9
20260903002705 68 163 3.5 7.8 0.00 0.00 0.00 80 1012.9
20260903000704 68 163 3.5 7.0 0.00 0.00 0.00 78 1012.5
20260903000204 68 140 2.6 13.9 0.00 0.00 0.00 78 1012.4
20260902234704 69 120 3.5 7.8 0.00 0.00 0.00 75 1012.3
20260902234205 69 144 4.3 10.4 0.00 0.00 0.00 75 1012.3
20260902232704 69 125 4.3 12.2 0.00 0.00 0.00 74 1012.5
20260902232204 69 141 2.6 8.7 0.00 0.00 0.00 74 1012.5
20260902230705 70 91 2.6 7.8 0.00 0.00 0.00 74 1012.7
20260902230205 70 112 4.3 14.8 0.00 0.00 0.00 73 1012.8
20260902224705 70 115 2.6 7.8 0.00 0.00 0.00 73 1012.9
20260902224205 70 132 2.6 7.8 0.00 0.00 0.00 73 1013.0
20260902222704 71 100 2.6 7.0 0.00 0.00 0.00 72 1013.5
20260902222205 71 126 1.7 10.4 0.00 0.00 0.00 72 1013.5
20260902220704 71 105 3.5 7.8 0.00 0.00 0.00 71 1013.6
20260902220205 71 107 2.6 7.0 0.00 0.00 0.00 72 1013.8
20260902214705 72 129 1.7 6.1 0.00 0.00 0.00 71 1014.1
20260902214205 72 119 3.5 7.8 0.00 0.00 0.00 71 1014.1
20260902212705 73 145 2.6 6.1 0.00 0.00 0.00 71 1014.3
20260902212204 73 145 3.5 6.1 0.00 0.00 0.00 71 1014.3
20260902210705 73 117 1.7 4.3 0.00 0.00 0.00 70 1014.5
20260902210204 73 108 2.6 7.0 0.00 0.00 0.00 70 1014.5
20260902204704 73 130 4.3 7.8 0.00 0.00 0.00 69 1014.5
20260902204204 73 139 1.7 8.7 0.00 0.00 0.00 70 1014.4
20260902202705 73 124 4.3 7.8 0.00 0.00 0.00 69 1014.3
20260902202205 73 107 3.5 11.3 0.00 0.00 0.00 69 1014.3
20260902200705 74 109 3.5 15.6 0.00 0.00 0.00 69 1014.9
20260902200204 74 132 5.2 14.8 0.00 0.00 0.00 68 1015.0
20260902194705 75 124 4.3 11.3 0.00 0.00 0.00 67 1015.3
20260902194204 74 156 4.3 17.4 0.00 0.00 0.00 68 1015.3
20260902192704 75 124 5.2 10.4 0.00 0.00 0.00 68 1015.0
20260902190704 74 98 2.6 6.1 0.00 0.00 0.00 70 1015.6
20260902190204 74 128 4.3 10.4 0.00 0.00 0.00 69 1015.7
20260902184704 73 115 4.3 8.7 0.00 0.00 0.00 70 1015.8
20260902184205 73 120 4.3 10.4 0.00 0.00 0.00 70 1015.9
20260902182705 74 132 4.3 8.7 0.00 0.00 0.00 70 1016.2
20260902182206 74 125 2.6 7.8 0.00 0.00 0.00 70 1016.3
20260902180704 73 101 3.5 7.0 0.00 0.00 0.00 71 1016.5
20260902180204 73 112 4.3 10.4 0.00 0.00 0.00 70 1016.5
20260902174705 73 142 2.6 7.8 0.00 0.00 0.00 70 1016.7
20260902174205 73 116 3.5 7.8 0.00 0.00 0.00 70 1016.7
20260902172704 73 133 2.6 7.8 0.00 0.00 0.00 71 1016.7
20260902172204 73 108 3.5 8.7 0.00 0.00 0.00 72 1016.6
20260902170704 72 163 2.6 7.0 0.00 0.00 0.00 72 1017.0
20260902164704 71 126 2.6 6.1 0.00 0.00 0.00 74 1017.2
20260902164205 71 145 4.3 8.7 0.00 0.00 0.00 73 1017.3
20260902162704 72 171 2.6 8.7 0.00 0.00 0.00 72 1017.4
20260902162204 72 158 4.3 10.4 0.00 0.00 0.00 72 1017.4
20260902160704 71 127 2.6 7.0 0.00 0.00 0.00 73 1017.5
20260902160204 71 105 4.3 7.8 0.00 0.00 0.00 73 1017.5
20260902154704 71 131 2.6 7.0 0.00 0.00 0.00 72 1017.6
20260902154204 72 114 2.6 8.7 0.00 0.00 0.00 71 1017.6
20260902152204 71 134 4.3 10.4 0.00 0.00 0.00 73 1017.5
20260902150704 70 117 3.5 8.7 0.00 0.00 0.00 73 1017.6
20260902144704 70 145 2.6 6.1 0.00 0.00 0.00 75 1017.6
20260902144204 70 128 2.6 8.7 0.00 0.00 0.00 74 1017.6
20260902142705 70 131 3.5 7.8 0.00 0.00 0.00 74 1017.5
20260902142204 70 135 3.5 7.0 0.00 0.00 0.00 74 1017.5
20260902140704 70 146 4.3 7.8 0.00 0.00 0.00 74 1017.5
20260902140204 70 116 3.5 7.0 0.00 0.00 0.00 73 1017.6